Time,TemperatureF,DewpointF,PressureIn,WindDirection,WindDirectionDegrees,WindSpeedMPH,WindSpeedGustMPH,Humidity,HourlyPrecipIn,Conditions,Clouds,dailyrainin,SoftwareType,DateUTC
2013-03-08 00:16:00,30.4,28.9,30.35,NE,34,0.0,0.0,94,0.00,,,0.00,VWS V14.01,2013-03-08 05:16:00,
2013-03-08 00:31:00,30.2,28.7,30.35,NE,34,0.0,1.0,94,0.00,,,0.00,VWS V14.01,2013-03-08 05:31:00,
2013-03-08 00:46:00,30.0,28.2,30.34,NNE,33,0.0,0.0,93,0.00,,,0.00,VWS V14.01,2013-03-08 05:46:00,
2013-03-08 01:01:00,29.8,28.0,30.35,NE,34,0.0,0.0,93,0.00,,,0.00,VWS V14.01,2013-03-08 06:01:00,
2013-03-08 01:16:00,29.7,27.7,30.35,NE,34,0.0,0.0,92,0.00,,,0.00,VWS V14.01,2013-03-08 06:16:00,
2013-03-08 01:31:00,29.6,27.3,30.35,NNE,33,0.0,0.0,91,0.00,,,0.00,VWS V14.01,2013-03-08 06:31:00,
2013-03-08 01:46:00,29.5,26.7,30.35,NNE,33,0.0,0.0,89,0.00,,,0.00,VWS V14.01,2013-03-08 06:46:00,
2013-03-08 02:01:00,29.5,26.4,30.35,NNE,33,0.0,0.0,88,0.00,,,0.00,VWS V14.01,2013-03-08 07:01:00,
2013-03-08 02:16:00,29.4,26.3,30.35,NNE,33,0.0,0.0,88,0.00,,,0.00,VWS V14.01,2013-03-08 07:16:00,
2013-03-08 02:31:00,29.2,26.1,30.35,NNE,33,0.0,0.0,88,0.00,,,0.00,VWS V14.01,2013-03-08 07:31:00,
2013-03-08 02:46:00,29.2,26.1,30.36,NE,34,0.0,2.0,88,0.00,,,0.00,VWS V14.01,2013-03-08 07:46:00,
2013-03-08 03:01:00,29.3,26.5,30.36,NNE,33,0.0,0.0,89,0.00,,,0.00,VWS V14.01,2013-03-08 08:01:00,
2013-03-08 03:16:00,29.4,26.8,30.36,NNE,33,0.0,1.0,90,0.00,,,0.00,VWS V14.01,2013-03-08 08:16:00,
2013-03-08 03:31:00,29.4,26.8,30.36,NNE,33,0.0,1.0,90,0.00,,,0.00,VWS V14.01,2013-03-08 08:31:00,
2013-03-08 03:46:00,29.5,26.9,30.36,NE,34,0.0,2.0,90,0.00,,,0.00,VWS V14.01,2013-03-08 08:46:00,
2013-03-08 04:01:00,29.6,27.0,30.37,NE,34,0.0,1.0,90,0.00,,,0.00,VWS V14.01,2013-03-08 09:01:00,
2013-03-08 04:16:00,29.7,27.4,30.37,NE,34,0.0,0.0,91,0.00,,,0.00,VWS V14.01,2013-03-08 09:16:00,
2013-03-08 04:31:00,29.9,27.6,30.38,NNE,33,0.0,3.0,91,0.00,,,0.00,VWS V14.01,2013-03-08 09:31:00,
2013-03-08 04:46:00,29.9,27.6,30.38,NNE,33,0.0,0.0,91,0.00,,,0.00,VWS V14.01,2013-03-08 09:46:00,
2013-03-08 05:01:00,30.0,27.7,30.38,NE,34,0.0,1.0,91,0.00,,,0.00,VWS V14.01,2013-03-08 10:01:00,
2013-03-08 05:16:00,30.2,27.9,30.39,NE,34,0.0,2.0,91,0.00,,,0.00,VWS V14.01,2013-03-08 10:16:00,
2013-03-08 05:31:00,30.4,28.1,30.39,NE,34,0.0,1.0,91,0.00,,,0.00,VWS V14.01,2013-03-08 10:31:00,
2013-03-08 05:46:00,30.4,28.1,30.39,NNE,33,0.0,0.0,91,0.00,,,0.00,VWS V14.01,2013-03-08 10:46:00,
2013-03-08 06:01:00,30.5,28.2,30.40,NE,34,0.0,1.0,91,0.00,,,0.00,VWS V14.01,2013-03-08 11:01:00,
2013-03-08 06:16:00,30.6,28.3,30.40,NE,34,0.0,3.0,91,0.00,,,0.00,VWS V14.01,2013-03-08 11:16:00,
2013-03-08 06:31:00,30.8,28.2,30.40,NNE,33,0.0,0.0,90,0.00,,,0.00,VWS V14.01,2013-03-08 11:31:00,
2013-03-08 06:46:00,31.0,28.1,30.41,NE,34,0.0,2.0,89,0.00,,,0.00,VWS V14.01,2013-03-08 11:46:00,
2013-03-08 07:01:00,31.1,28.0,30.42,NNE,33,0.0,0.0,88,0.00,,,0.00,VWS V14.01,2013-03-08 12:01:00,
2013-03-08 07:16:00,31.5,27.8,30.42,NNE,33,0.0,2.0,86,0.00,,,0.00,VWS V14.01,2013-03-08 12:16:00,
2013-03-08 07:31:00,32.1,27.5,30.42,NE,34,1.0,3.0,83,0.00,,,0.00,VWS V14.01,2013-03-08 12:31:00,
2013-03-08 07:46:00,32.7,27.2,30.43,NNE,33,0.0,5.0,80,0.00,,,0.00,VWS V14.01,2013-03-08 12:46:00,
2013-03-08 08:01:00,33.2,27.1,30.43,NNE,32,0.0,5.0,78,0.00,,,0.00,VWS V14.01,2013-03-08 13:01:00,
2013-03-08 08:16:00,33.7,26.6,30.44,NNE,28,4.0,8.0,75,0.00,,,0.00,VWS V14.01,2013-03-08 13:16:00,
2013-03-08 08:31:00,34.4,27.0,30.44,NNE,17,0.0,8.0,74,0.00,,,0.00,VWS V14.01,2013-03-08 13:31:00,
2013-03-08 08:46:00,34.8,26.0,30.44,ENE,59,2.0,9.0,70,0.00,,,0.00,VWS V14.01,2013-03-08 13:46:00,
2013-03-08 09:01:00,35.8,25.9,30.44,NE,35,2.0,9.0,67,0.00,,,0.00,VWS V14.01,2013-03-08 14:01:00,
2013-03-08 09:16:00,36.1,25.5,30.44,NW,321,0.0,8.0,65,0.01,,,0.01,VWS V14.01,2013-03-08 14:16:00,
2013-03-08 09:31:00,36.7,25.3,30.44,NNE,19,1.0,7.0,63,0.01,,,0.01,VWS V14.01,2013-03-08 14:31:00,
2013-03-08 09:46:00,37.3,25.1,30.44,North,350,0.0,8.0,61,0.02,,,0.02,VWS V14.01,2013-03-08 14:46:00,
2013-03-08 10:01:00,38.4,25.7,30.45,NE,39,4.0,9.0,60,0.02,,,0.02,VWS V14.01,2013-03-08 15:01:00,
2013-03-08 10:16:00,37.9,24.9,30.45,ENE,78,4.0,15.0,59,0.03,,,0.03,VWS V14.01,2013-03-08 15:16:00,
2013-03-08 10:32:00,38.5,25.0,30.45,NNW,329,4.0,11.0,58,0.02,,,0.03,VWS V14.01,2013-03-08 15:32:00,
2013-03-08 10:46:00,38.4,25.3,30.45,NNW,327,3.0,9.0,59,0.02,,,0.03,VWS V14.01,2013-03-08 15:46:00,
2013-03-08 11:01:00,38.7,24.8,30.45,NNW,340,0.0,9.0,57,0.01,,,0.03,VWS V14.01,2013-03-08 16:01:00,
2013-03-08 11:16:00,39.3,25.4,30.45,NNE,33,2.0,10.0,57,0.01,,,0.03,VWS V14.01,2013-03-08 16:16:00,
2013-03-08 11:31:00,39.0,23.8,30.45,North,11,4.0,9.0,54,0.00,,,0.03,VWS V14.01,2013-03-08 16:31:00,
2013-03-08 11:46:00,38.6,23.8,30.46,ENE,63,3.0,9.0,55,0.00,,,0.03,VWS V14.01,2013-03-08 16:46:00,
2013-03-08 12:01:00,39.1,24.7,30.46,NNW,346,3.0,10.0,56,0.00,,,0.03,VWS V14.01,2013-03-08 17:01:00,
2013-03-08 12:16:00,39.7,25.3,30.45,North,355,1.0,12.0,56,0.00,,,0.03,VWS V14.01,2013-03-08 17:16:00,
2013-03-08 12:31:00,39.9,25.5,30.45,NW,317,4.0,10.0,56,0.00,,,0.03,VWS V14.01,2013-03-08 17:31:00,
2013-03-08 12:46:00,39.9,25.5,30.45,WNW,298,8.0,11.0,56,0.00,,,0.03,VWS V14.01,2013-03-08 17:46:00,
2013-03-08 13:01:00,40.0,26.0,30.44,NW,318,0.0,10.0,57,0.00,,,0.03,VWS V14.01,2013-03-08 18:01:00,
2013-03-08 13:16:00,40.2,25.8,30.44,North,351,1.0,8.0,56,0.00,,,0.03,VWS V14.01,2013-03-08 18:16:00,
2013-03-08 13:31:00,40.6,26.6,30.43,West,269,1.0,8.0,57,0.00,,,0.03,VWS V14.01,2013-03-08 18:31:00,
2013-03-08 13:46:00,40.5,26.0,30.43,NE,42,2.0,7.0,56,0.00,,,0.03,VWS V14.01,2013-03-08 18:46:00,
2013-03-08 14:01:00,41.0,26.1,30.43,NE,53,6.0,7.0,55,0.00,,,0.03,VWS V14.01,2013-03-08 19:01:00,
2013-03-08 14:16:00,41.0,26.1,30.43,North,10,3.0,9.0,55,0.00,,,0.03,VWS V14.01,2013-03-08 19:16:00,
2013-03-08 14:31:00,41.5,25.7,30.44,NW,306,2.0,7.0,53,0.00,,,0.03,VWS V14.01,2013-03-08 19:31:00,
2013-03-08 14:46:00,41.6,25.8,30.44,NE,44,0.0,7.0,53,0.00,,,0.03,VWS V14.01,2013-03-08 19:46:00,
2013-03-08 15:01:00,41.8,25.9,30.44,NNW,327,0.0,7.0,53,0.00,,,0.03,VWS V14.01,2013-03-08 20:01:00,
2013-03-08 15:16:00,41.7,25.4,30.44,NNW,330,4.0,8.0,52,0.00,,,0.03,VWS V14.01,2013-03-08 20:16:00,
2013-03-08 15:31:00,41.7,25.9,30.44,NNE,20,0.0,7.0,53,0.00,,,0.03,VWS V14.01,2013-03-08 20:31:00,
2013-03-08 15:46:00,41.6,25.8,30.44,WNW,286,2.0,7.0,53,0.00,,,0.03,VWS V14.01,2013-03-08 20:46:00,
2013-03-08 16:01:00,41.6,25.8,30.44,West,277,0.0,6.0,53,0.00,,,0.03,VWS V14.01,2013-03-08 21:01:00,
2013-03-08 16:16:00,41.8,25.9,30.44,West,261,4.0,5.0,53,0.00,,,0.03,VWS V14.01,2013-03-08 21:16:00,
2013-03-08 16:31:00,41.2,24.9,30.44,SW,220,2.0,6.0,52,0.00,,,0.03,VWS V14.01,2013-03-08 21:31:00,
2013-03-08 16:46:00,40.6,25.3,30.44,NW,316,2.0,7.0,54,0.00,,,0.03,VWS V14.01,2013-03-08 21:46:00,
2013-03-08 17:01:00,40.9,25.1,30.44,West,275,3.0,8.0,53,0.00,,,0.03,VWS V14.01,2013-03-08 22:01:00,
2013-03-08 17:16:00,41.3,25.5,30.44,WNW,287,0.0,5.0,53,0.00,,,0.03,VWS V14.01,2013-03-08 22:16:00,
2013-03-08 17:31:00,40.9,25.1,30.45,NNW,334,0.0,6.0,53,0.00,,,0.03,VWS V14.01,2013-03-08 22:31:00,
2013-03-08 17:46:00,39.6,24.8,30.45,WNW,300,0.0,5.0,55,0.00,,,0.03,VWS V14.01,2013-03-08 22:46:00,
2013-03-08 18:01:00,38.8,25.3,30.45,West,281,0.0,4.0,58,0.00,,,0.03,VWS V14.01,2013-03-08 23:01:00,
2013-03-08 18:16:00,38.1,25.9,30.45,West,281,0.0,2.0,61,0.00,,,0.03,VWS V14.01,2013-03-08 23:16:00,
2013-03-08 18:31:00,37.3,25.5,30.45,WNW,285,0.0,2.0,62,0.00,,,0.03,VWS V14.01,2013-03-08 23:31:00,
2013-03-08 18:46:00,36.3,25.7,30.46,WNW,285,0.0,0.0,65,0.00,,,0.03,VWS V14.01,2013-03-08 23:46:00,
2013-03-08 19:01:00,35.5,25.6,30.46,WNW,284,0.0,0.0,67,0.00,,,0.03,VWS V14.01,2013-03-09 00:01:00,
2013-03-08 19:16:00,34.6,25.5,30.46,WNW,285,0.0,0.0,69,0.00,,,0.03,VWS V14.01,2013-03-09 00:16:00,
2013-03-08 19:31:00,33.7,25.3,30.46,WNW,285,0.0,0.0,71,0.00,,,0.03,VWS V14.01,2013-03-09 00:31:00,
2013-03-08 19:46:00,33.0,25.0,30.47,WNW,285,0.0,0.0,72,0.00,,,0.03,VWS V14.01,2013-03-09 00:46:00,
2013-03-08 20:01:00,32.5,25.1,30.47,WNW,284,0.0,0.0,74,0.00,,,0.03,VWS V14.01,2013-03-09 01:01:00,
2013-03-08 20:16:00,32.2,24.9,30.47,WNW,285,0.0,0.0,74,0.00,,,0.03,VWS V14.01,2013-03-09 01:16:00,
2013-03-08 20:31:00,32.1,25.1,30.47,WNW,285,0.0,0.0,75,0.00,,,0.03,VWS V14.01,2013-03-09 01:31:00,
2013-03-08 20:46:00,32.1,25.4,30.47,WNW,285,0.0,0.0,76,0.00,,,0.03,VWS V14.01,2013-03-09 01:46:00,
2013-03-08 21:01:00,32.3,25.6,30.47,WNW,285,0.0,0.0,76,0.00,,,0.03,VWS V14.01,2013-03-09 02:01:00,
2013-03-08 21:16:00,32.4,25.7,30.48,WNW,284,0.0,0.0,76,0.00,,,0.03,VWS V14.01,2013-03-09 02:16:00,
2013-03-08 21:31:00,32.4,25.7,30.47,WNW,284,0.0,0.0,76,0.00,,,0.03,VWS V14.01,2013-03-09 02:31:00,
2013-03-08 21:46:00,32.3,25.9,30.47,WNW,285,0.0,2.0,77,0.00,,,0.03,VWS V14.01,2013-03-09 02:46:00,
2013-03-08 22:02:00,32.5,25.8,30.47,West,280,0.0,3.0,76,0.00,,,0.03,VWS V14.01,2013-03-09 03:02:00,
2013-03-08 22:16:00,32.6,25.9,30.47,West,259,0.0,3.0,76,0.00,,,0.03,VWS V14.01,2013-03-09 03:16:00,
2013-03-08 22:31:00,32.3,25.9,30.47,WSW,257,0.0,2.0,77,0.00,,,0.03,VWS V14.01,2013-03-09 03:31:00,
2013-03-08 22:47:00,32.7,26.3,30.47,West,271,0.0,3.0,77,0.00,,,0.03,VWS V14.01,2013-03-09 03:47:00,
2013-03-08 23:02:00,32.9,26.8,30.46,West,276,0.0,3.0,78,0.00,,,0.03,VWS V14.01,2013-03-09 04:02:00,
2013-03-08 23:17:00,32.7,26.6,30.46,West,259,0.0,3.0,78,0.00,,,0.03,VWS V14.01,2013-03-09 04:17:00,
2013-03-08 23:32:00,32.1,26.3,30.46,WSW,257,0.0,4.0,79,0.00,,,0.03,VWS V14.01,2013-03-09 04:32:00,
2013-03-08 23:47:00,32.0,27.4,30.46,West,270,0.0,3.0,83,0.00,,,0.03,VWS V14.01,2013-03-09 04:47:00,